DW2380 Weather Reports


time (UTC)temp
F
wind
direction
speed
knots
gust
knots
rain 1hr
in
rain 24hr
in
rain mn
in
humidity
%
barometer
mb
20260507105037 56 186 2.6 10.4 0.00 0.00 0.00 33 1015.4
20260507104559 55 150 1.7 11.3 0.00 0.00 0.00 29 1015.4
20260507104037 56 329 5.2 11.3 0.00 0.00 0.00 31 1015.5
20260507103536 56 294 5.2 11.3 0.00 0.00 0.00 34 1015.4
20260507103049 56 182 1.7 6.1 0.00 0.00 0.00 31 1015.3
20260507102537 56 273 1.7 8.7 0.00 0.00 0.00 37 1015.4
20260507102037 55 0 0.9 8.7 0.00 0.00 0.00 31 1015.4
20260507101555 55 269 5.2 8.7 0.00 0.00 0.00 33 1015.4
20260507101037 55 229 2.6 8.7 0.00 0.00 0.00 34 1015.4
20260507100536 55 248 1.7 8.7 0.00 0.00 0.00 34 1015.3
20260507100055 55 342 4.3 8.7 0.00 0.00 0.00 33 1015.3
20260507095542 55 214 4.3 8.7 0.00 0.00 0.00 32 1015.3
20260507095042 56 257 2.6 5.2 0.00 0.00 0.00 35 1015.3
20260507094547 56 263 1.7 4.3 0.00 0.00 0.00 35 1015.2
20260507094044 56 246 1.7 4.3 0.00 0.00 0.00 33 1015.3
20260507093539 55 308 0.9 3.5 0.00 0.00 0.00 33 1015.3
20260507093050 54 261 1.7 8.7 0.00 0.00 0.00 33 1015.3
20260507092539 54 12 2.6 8.7 0.00 0.00 0.00 33 1015.3
20260507092044 54 321 4.3 8.7 0.00 0.00 0.00 34 1015.3
20260507091550 54 352 2.6 7.0 0.00 0.00 0.00 35 1015.4
20260507091041 54 333 0.9 3.5 0.00 0.00 0.00 32 1015.4
20260507090539 54 90 0.9 5.2 0.00 0.00 0.00 34 1015.3
20260507090046 54 184 1.7 7.0 0.00 0.00 0.00 36 1015.4
20260507085540 54 167 3.5 7.0 0.00 0.00 0.00 35 1015.5
20260507085039 54 225 3.5 6.1 0.00 0.00 0.00 38 1015.5
20260507084554 53 0 1.7 7.0 0.00 0.00 0.00 34 1015.4
20260507084039 53 130 0.9 7.8 0.00 0.00 0.00 35 1015.5
20260507083540 54 286 3.5 7.8 0.00 0.00 0.00 40 1015.6
20260507083048 53 255 3.5 7.8 0.00 0.00 0.00 37 1015.5
20260507082538 52 55 2.6 6.1 0.00 0.00 0.00 35 1015.5
20260507082036 52 291 2.6 6.1 0.00 0.00 0.00 36 1015.5
20260507081549 52 339 1.7 5.2 0.00 0.00 0.00 34 1015.6
20260507081036 52 286 2.6 7.8 0.00 0.00 0.00 36 1015.6
20260507080540 52 253 4.3 7.8 0.00 0.00 0.00 36 1015.6
20260507080052 52 235 0.9 3.5 0.00 0.00 0.00 35 1015.5
20260507075540 52 78 1.7 3.5 0.00 0.00 0.00 35 1015.5
20260507075039 51 0 0.0 5.2 0.00 0.00 0.00 35 1015.5
20260507074552 51 273 2.6 5.2 0.00 0.00 0.00 37 1015.6
20260507074039 51 302 1.7 5.2 0.00 0.00 0.00 35 1015.6
20260507073539 52 267 0.9 4.3 0.00 0.00 0.00 39 1015.6
20260507073048 51 140 0.9 4.3 0.00 0.00 0.00 38 1015.6
20260507072539 50 352 1.7 4.3 0.00 0.00 0.00 37 1015.7
20260507072038 51 0 0.9 4.3 0.00 0.00 0.00 36 1015.7
20260507071548 51 95 2.6 6.1 0.00 0.00 0.00 38 1015.7
20260507071039 51 59 2.6 7.0 0.00 0.00 0.00 38 1015.6
20260507070539 51 92 1.7 7.0 0.00 0.00 0.00 37 1015.6
20260507065538 50 190 0.9 6.1 0.00 0.00 0.00 37 1015.6
20260507065038 50 169 1.7 6.1 0.00 0.00 0.00 39 1015.6
20260507064547 49 101 1.7 6.1 0.00 0.00 0.00 40 1015.6
20260507064037 49 13 1.7 5.2 0.00 0.00 0.00 40 1015.6
20260507063536 49 38 1.7 7.0 0.00 0.00 0.00 40 1015.6
20260507063051 48 38 2.6 8.7 0.00 0.00 0.00 41 1015.7
20260507062536 48 83 3.5 8.7 0.00 0.00 0.00 39 1015.7
20260507062037 48 103 4.3 7.8 0.00 0.00 0.00 40 1015.6
20260507061555 48 96 1.7 6.1 0.00 0.00 0.00 45 1015.6
20260507061038 47 90 1.7 4.3 0.00 0.00 0.00 48 1015.6
20260507060539 46 5 2.6 5.2 0.00 0.00 0.00 48 1015.7
20260507060046 46 349 2.6 6.1 0.00 0.00 0.00 47 1015.6
20260507055537 46 45 2.6 6.1 0.00 0.00 0.00 50 1015.5
20260507055038 45 22 1.7 4.3 0.00 0.00 0.00 48 1015.5
20260507054546 45 48 1.7 3.5 0.00 0.00 0.00 49 1015.5
20260507054036 45 80 1.7 3.5 0.00 0.00 0.00 50 1015.5
20260507053537 45 53 0.9 3.5 0.00 0.00 0.00 50 1015.5
20260507053049 44 69 1.7 3.5 0.00 0.00 0.00 51 1015.5
20260507052537 43 53 0.9 3.5 0.00 0.00 0.00 52 1015.5
20260507052037 42 58 0.9 3.5 0.00 0.00 0.00 54 1015.5
20260507051545 42 46 0.9 3.5 0.00 0.00 0.00 56 1015.4
20260507051038 41 75 0.9 3.5 0.00 0.00 0.00 57 1015.5
20260507050538 40 0 0.9 3.5 0.00 0.00 0.00 59 1015.5
20260507045537 38 51 0.9 2.6 0.00 0.00 0.00 61 1015.6
20260507045036 38 44 0.0 1.7 0.00 0.00 0.00 63 1015.6
20260507044552 37 44 0.9 2.6 0.00 0.00 0.00 64 1015.5
20260507044041 37 78 0.9 2.6 0.00 0.00 0.00 66 1015.6
20260507043537 36 55 0.9 3.5 0.00 0.00 0.00 69 1015.5
20260507043047 36 32 0.9 3.5 0.00 0.00 0.00 69 1015.6
20260507042540 34 28 1.7 3.5 0.00 0.00 0.00 72 1015.6
20260507042039 33 34 1.7 3.5 0.00 0.00 0.00 75 1015.6
20260507041552 32 0 0.0 2.6 0.00 0.00 0.00 79 1015.6
20260507041037 32 0 0.9 2.6 0.00 0.00 0.00 79 1015.6
20260507040537 31 41 0.9 2.6 0.00 0.00 0.00 80 1015.6
20260507040050 30 55 0.9 2.6 0.00 0.00 0.00 82 1015.5
20260507035536 30 0 0.9 2.6 0.00 0.00 0.00 82 1015.5
20260507035038 29 65 1.7 2.6 0.00 0.00 0.00 83 1015.6
20260507034544 28 67 0.9 2.6 0.00 0.00 0.00 83 1015.5
20260507034035 27 55 0.9 1.7 0.00 0.00 0.00 84 1015.5
20260507033537 27 49 0.9 1.7 0.00 0.00 0.00 84 1015.5
20260507033048 26 38 0.9 1.7 0.00 0.00 0.00 84 1015.5
20260507032537 26 44 0.9 1.7 0.00 0.00 0.00 85 1015.5
20260507032037 25 42 0.0 2.6 0.00 0.00 0.00 85 1015.4
20260507031553 25 42 0.0 2.6 0.00 0.00 0.00 86 1015.4
20260507031041 24 42 0.9 2.6 0.00 0.00 0.00 86 1015.4
20260507030538 23 43 0.9 2.6 0.00 0.00 0.00 86 1015.4
20260507030046 23 0 0.0 1.7 0.00 0.00 0.00 86 1015.4
20260507025536 23 0 0.0 0.9 0.00 0.00 0.00 86 1015.4
20260507025039 22 0 0.0 1.7 0.00 0.00 0.00 85 1015.5
20260507024547 23 0 0.0 2.6 0.00 0.00 0.00 85 1015.4
20260507024037 23 0 0.9 3.5 0.00 0.00 0.00 86 1015.5
20260507023538 23 40 1.7 3.5 0.00 0.00 0.00 86 1015.4
20260507023043 23 57 1.7 3.5 0.00 0.00 0.00 85 1015.4
20260507022538 23 57 1.7 3.5 0.00 0.00 0.00 85 1015.5
20260507022038 22 44 1.7 3.5 0.00 0.00 0.00 85 1015.4
20260507021556 22 47 0.9 2.6 0.00 0.00 0.00 85 1015.5
20260507021037 22 47 0.9 2.6 0.00 0.00 0.00 85 1015.5
20260507020537 22 47 0.9 2.6 0.00 0.00 0.00 84 1015.4
20260507020049 22 47 0.9 2.6 0.00 0.00 0.00 84 1015.4
20260507015540 22 47 0.0 1.7 0.00 0.00 0.00 84 1015.5
20260507015034 22 0 0.0 1.7 0.00 0.00 0.00 84 1015.4
20260507014548 22 0 0.0 1.7 0.00 0.00 0.00 84 1015.3
20260507014037 23 37 0.0 1.7 0.00 0.00 0.00 84 1015.3
20260507013536 23 0 0.0 0.9 0.00 0.00 0.00 84 1015.3
20260507013046 23 0 0.0 1.7 0.00 0.00 0.00 84 1015.3
20260507012539 23 0 0.0 1.7 0.00 0.00 0.00 84 1015.3
20260507012038 23 36 0.9 2.6 0.00 0.00 0.00 84 1015.3
20260507011555 23 0 0.9 2.6 0.00 0.00 0.00 84 1015.3
20260507011038 23 32 1.7 2.6 0.00 0.00 0.00 84 1015.2
20260507010537 23 57 0.0 2.6 0.00 0.00 0.00 84 1015.1
20260507010053 23 57 0.9 2.6 0.00 0.00 0.00 83 1015.0
20260507005538 23 45 0.9 3.5 0.00 0.00 0.00 84 1015.1
20260507005041 23 28 1.7 3.5 0.00 0.00 0.00 84 1015.0
20260507004542 23 63 1.7 3.5 0.00 0.00 0.00 83 1014.9
20260507004038 23 77 1.7 3.5 0.00 0.00 0.00 83 1015.0
20260507003537 23 56 1.7 2.6 0.00 0.00 0.00 83 1014.9
20260507003047 23 65 0.9 2.6 0.00 0.00 0.00 83 1014.9
20260507002537 24 0 0.0 3.5 0.00 0.00 0.00 83 1014.9
20260507002037 24 42 1.7 3.5 0.00 0.00 0.00 83 1014.9
20260507001544 23 38 1.7 3.5 0.00 0.00 0.00 83 1014.8
20260507001036 23 55 0.0 4.3 0.00 0.00 0.00 83 1014.7
20260507000539 23 46 1.7 4.3 0.00 0.00 0.00 82 1014.7
20260507000048 23 40 1.7 4.3 0.00 0.00 0.00 82 1014.7
20260506235539 24 74 0.9 3.5 0.00 0.00 0.00 81 1014.6
20260506235035 24 0 0.0 3.5 0.00 0.00 0.00 82 1014.6
20260506234615 24 0 0.9 2.6 0.00 0.00 0.00 82 1014.6
20260506234038 24 0 0.9 3.5 0.00 0.00 0.00 81 1014.7
20260506233538 24 51 1.7 3.5 0.00 0.00 0.00 81 1014.6
20260506233045 24 42 1.7 3.5 0.00 0.00 0.00 81 1014.6
20260506232537 25 58 0.0 1.7 0.00 0.00 0.00 82 1014.6
20260506232038 25 58 0.0 1.7 0.00 0.00 0.00 82 1014.7
20260506231554 25 58 0.9 2.6 0.00 0.00 0.00 82 1014.6
20260506231037 25 63 0.9 2.6 0.00 0.00 0.00 81 1014.6
20260506230537 25 37 0.0 1.7 0.00 0.00 0.00 80 1014.5
20260506230057 25 0 0.0 4.3 0.00 0.00 0.00 81 1014.5
20260506225538 25 0 0.9 4.3 0.00 0.00 0.00 81 1014.5
20260506225035 25 40 2.6 4.3 0.00 0.00 0.00 80 1014.5
20260506224547 25 65 0.0 2.6 0.00 0.00 0.00 80 1014.6
20260506224037 26 0 0.0 2.6 0.00 0.00 0.00 80 1014.6
20260506223537 26 67 1.7 2.6 0.00 0.00 0.00 80 1014.6
20260506223057 26 67 0.9 1.7 0.00 0.00 0.00 80 1014.6
20260506222538 26 67 0.0 1.7 0.00 0.00 0.00 81 1014.5
20260506222041 26 67 0.0 2.6 0.00 0.00 0.00 80 1014.5
20260506221555 26 67 0.9 2.6 0.00 0.00 0.00 78 1014.4
20260506221039 27 79 0.9 3.5 0.00 0.00 0.00 79 1014.4
20260506220537 27 355 0.9 3.5 0.00 0.00 0.00 80 1014.4
20260506220047 27 57 0.0 1.7 0.00 0.00 0.00 80 1014.4
20260506215539 27 0 0.0 2.6 0.00 0.00 0.00 80 1014.4
20260506215037 27 0 0.0 2.6 0.00 0.00 0.00 80 1014.4
20260506214544 28 57 0.9 2.6 0.00 0.00 0.00 78 1014.4
20260506214037 28 62 0.9 2.6 0.00 0.00 0.00 77 1014.3
20260506213539 28 59 0.9 2.6 0.00 0.00 0.00 76 1014.3
20260506213048 28 57 0.0 1.7 0.00 0.00 0.00 76 1014.2
20260506212538 29 0 0.0 1.7 0.00 0.00 0.00 76 1014.2
20260506212035 29 0 0.0 1.7 0.00 0.00 0.00 77 1014.1
20260506211546 29 57 0.0 2.6 0.00 0.00 0.00 77 1014.2
20260506211038 29 57 0.9 2.6 0.00 0.00 0.00 77 1014.2
20260506210538 29 57 0.0 1.7 0.00 0.00 0.00 76 1014.1
20260506210047 29 0 0.0 1.7 0.00 0.00 0.00 76 1014.2
20260506205537 29 57 0.9 1.7 0.00 0.00 0.00 75 1014.1
20260506205037 30 57 0.0 2.6 0.00 0.00 0.00 73 1014.1
20260506204554 30 57 0.0 2.6 0.00 0.00 0.00 75 1014.1
20260506204040 30 57 0.9 2.6 0.00 0.00 0.00 73 1014.1
20260506203537 30 52 1.7 2.6 0.00 0.00 0.00 72 1014.0
20260506203050 31 72 0.9 2.6 0.00 0.00 0.00 67 1014.1
20260506202538 32 0 0.0 2.6 0.00 0.00 0.00 67 1014.0
20260506202038 32 42 0.9 2.6 0.00 0.00 0.00 66 1014.2
20260506201543 32 42 0.9 2.6 0.00 0.00 0.00 66 1014.2
20260506201040 32 46 0.9 3.5 0.00 0.00 0.00 65 1014.2
20260506200538 32 46 1.7 3.5 0.00 0.00 0.00 66 1014.2
20260506200106 33 48 0.9 1.7 0.00 0.00 0.00 63 1014.3
20260506195538 34 0 0.0 1.7 0.00 0.00 0.00 62 1014.3
20260506195039 34 36 0.9 2.6 0.00 0.00 0.00 60 1014.2
20260506194550 34 36 0.9 2.6 0.00 0.00 0.00 60 1014.2
20260506194037 34 36 0.0 1.7 0.00 0.00 0.00 59 1014.2
20260506193541 35 36 0.0 2.6 0.00 0.00 0.00 60 1014.3
20260506193048 36 36 0.9 2.6 0.00 0.00 0.00 56 1014.2
20260506192537 36 36 1.7 2.6 0.00 0.00 0.00 56 1014.2
20260506192041 36 360 0.9 1.7 0.00 0.00 0.00 54 1014.1
20260506191552 37 330 0.0 0.9 0.00 0.00 0.00 53 1014.1
20260506191036 38 0 0.0 1.7 0.00 0.00 0.00 51 1014.1
20260506190538 39 0 0.0 1.7 0.00 0.00 0.00 49 1014.0
20260506190050 40 330 0.9 1.7 0.00 0.00 0.00 47 1014.0
20260506185538 41 330 0.9 1.7 0.00 0.00 0.00 53 1013.9
20260506185041 41 330 0.9 1.7 0.00 0.00 0.00 45 1013.9
20260506184557 42 330 0.9 2.6 0.00 0.00 0.00 43 1013.9
20260506184037 42 320 0.9 2.6 0.00 0.00 0.00 43 1013.8
20260506183537 43 320 0.9 3.5 0.00 0.00 0.00 41 1013.8
20260506183101 44 319 1.7 3.5 0.00 0.00 0.00 42 1013.8
20260506182537 44 316 1.7 3.5 0.00 0.00 0.00 42 1013.8
20260506182038 45 316 1.7 4.3 0.00 0.00 0.00 39 1013.8
20260506181559 45 302 2.6 4.3 0.00 0.00 0.00 38 1013.8
20260506181038 45 313 1.7 6.1 0.00 0.00 0.00 39 1013.7
20260506180539 45 312 2.6 6.1 0.00 0.00 0.00 38 1013.8
20260506180048 46 309 2.6 7.0 0.00 0.00 0.00 37 1013.7
20260506175542 46 315 2.6 7.0 0.00 0.00 0.00 36 1013.8
20260506175039 46 295 2.6 7.0 0.00 0.00 0.00 37 1013.7
20260506174545 47 306 3.5 8.7 0.00 0.00 0.00 36 1013.7
20260506174037 47 301 3.5 8.7 0.00 0.00 0.00 36 1013.6
20260506173538 47 297 2.6 9.6 0.00 0.00 0.00 36 1013.7
20260506173101 47 280 3.5 9.6 0.00 0.00 0.00 36 1013.6
20260506172537 47 313 5.2 9.6 0.00 0.00 0.00 36 1013.6
20260506172036 47 298 2.6 7.0 0.00 0.00 0.00 38 1013.6
20260506171546 48 281 2.6 9.6 0.00 0.00 0.00 37 1013.6
20260506171038 48 304 6.1 10.4 0.00 0.00 0.00 36 1013.5
20260506170538 48 272 5.2 10.4 0.00 0.00 0.00 35 1013.6
20260506170052 49 304 7.0 10.4 0.00 0.00 0.00 34 1013.6
20260506165539 49 339 3.5 7.8 0.00 0.00 0.00 34 1013.5
20260506165038 49 273 2.6 7.8 0.00 0.00 0.00 35 1013.5
20260506164550 49 279 4.3 7.8 0.00 0.00 0.00 36 1013.5
20260506164037 50 269 4.3 8.7 0.00 0.00 0.00 35 1013.4
20260506163537 50 296 2.6 8.7 0.00 0.00 0.00 36 1013.5
20260506163054 50 316 5.2 8.7 0.00 0.00 0.00 34 1013.4
20260506162537 51 306 4.3 8.7 0.00 0.00 0.00 33 1013.4
20260506162037 51 265 3.5 8.7 0.00 0.00 0.00 35 1013.4
20260506161556 51 318 3.5 8.7 0.00 0.00 0.00 33 1013.3
20260506161037 51 281 4.3 8.7 0.00 0.00 0.00 33 1013.3
20260506160537 50 343 2.6 7.8 0.00 0.00 0.00 33 1013.4
20260506160046 50 313 2.6 9.6 0.00 0.00 0.00 34 1013.3
20260506155537 51 284 5.2 10.4 0.00 0.00 0.00 33 1013.4
20260506155037 51 332 5.2 10.4 0.00 0.00 0.00 32 1013.4
20260506154545 51 306 2.6 7.8 0.00 0.00 0.00 32 1013.3
20260506154041 51 340 1.7 7.8 0.00 0.00 0.00 32 1013.3
20260506153539 52 0 3.5 11.3 0.00 0.00 0.00 34 1013.3
20260506153046 51 314 6.1 11.3 0.00 0.00 0.00 34 1013.4
20260506152539 51 323 6.1 10.4 0.00 0.00 0.00 33 1013.4
20260506152038 51 278 1.7 8.7 0.00 0.00 0.00 32 1013.4
20260506151601 51 322 5.2 8.7 0.00 0.00 0.00 32 1013.4
20260506151037 51 314 6.1 9.6 0.00 0.00 0.00 32 1013.4
20260506150538 51 304 2.6 11.3 0.00 0.00 0.00 35 1013.4
20260506150047 51 294 4.3 11.3 0.00 0.00 0.00 33 1013.4
20260506145538 52 308 5.2 9.6 0.00 0.00 0.00 33 1013.3
20260506145037 52 302 5.2 8.7 0.00 0.00 0.00 34 1013.4
20260506144544 52 277 4.3 8.7 0.00 0.00 0.00 32 1013.4
20260506144041 52 282 4.3 9.6 0.00 0.00 0.00 33 1013.4
20260506143537 52 292 4.3 11.3 0.00 0.00 0.00 33 1013.5
20260506143048 52 277 7.0 11.3 0.00 0.00 0.00 33 1013.5
20260506142538 52 20 3.5 9.6 0.00 0.00 0.00 32 1013.5
20260506142038 52 317 4.3 9.6 0.00 0.00 0.00 32 1013.5
20260506141542 52 253 5.2 9.6 0.00 0.00 0.00 34 1013.3
20260506141038 52 323 5.2 9.6 0.00 0.00 0.00 32 1013.4
20260506140540 52 282 3.5 9.6 0.00 0.00 0.00 32 1013.4
20260506140058 53 333 2.6 10.4 0.00 0.00 0.00 33 1013.4
20260506135536 53 280 5.2 12.2 0.00 0.00 0.00 34 1013.5
20260506135037 53 273 3.5 12.2 0.00 0.00 0.00 34 1013.4
20260506134548 53 229 7.0 13.0 0.00 0.00 0.00 33 1013.4
20260506134038 53 304 5.2 13.0 0.00 0.00 0.00 35 1013.4
20260506133539 52 261 2.6 11.3 0.00 0.00 0.00 34 1013.5
20260506133047 52 313 6.1 10.4 0.00 0.00 0.00 33 1013.5
20260506132537 53 303 6.1 14.8 0.00 0.00 0.00 35 1013.5
20260506132040 52 269 2.6 14.8 0.00 0.00 0.00 32 1013.4
20260506131543 52 309 5.2 10.4 0.00 0.00 0.00 34 1013.4
20260506131039 52 321 1.7 11.3 0.00 0.00 0.00 37 1013.4
20260506130536 53 290 6.1 11.3 0.00 0.00 0.00 35 1013.4
20260506130057 53 285 5.2 11.3 0.00 0.00 0.00 32 1013.4
20260506125538 53 272 7.0 10.4 0.00 0.00 0.00 35 1013.4
20260506125040 53 248 4.3 11.3 0.00 0.00 0.00 32 1013.4
20260506124545 53 287 7.0 13.0 0.00 0.00 0.00 33 1013.4
20260506124038 53 250 4.3 13.0 0.00 0.00 0.00 37 1013.5
20260506123538 52 277 7.0 14.8 0.00 0.00 0.00 35 1013.4
20260506123048 52 315 7.0 14.8 0.00 0.00 0.00 32 1013.5
20260506122537 52 311 6.1 14.8 0.00 0.00 0.00 33 1013.5
20260506122036 52 308 3.5 9.6 0.00 0.00 0.00 35 1013.5
20260506121546 52 347 2.6 13.0 0.00 0.00 0.00 34 1013.5
20260506121039 52 288 5.2 13.0 0.00 0.00 0.00 36 1013.5
20260506120537 52 325 7.8 13.0 0.00 0.00 0.00 33 1013.5
20260506120047 53 277 6.1 13.0 0.00 0.00 0.00 37 1013.4
20260506115539 52 233 4.3 11.3 0.00 0.00 0.00 35 1013.4
20260506115038 52 258 2.6 10.4 0.00 0.00 0.00 34 1013.4
20260506114546 52 307 5.2 12.2 0.00 0.00 0.00 33 1013.5
20260506114038 52 284 7.8 12.2 0.00 0.00 0.00 34 1013.5
20260506113537 52 300 6.1 12.2 0.00 0.00 0.00 37 1013.4
20260506113043 52 277 4.3 11.3 0.00 0.00 0.00 34 1013.4
20260506112539 52 308 3.5 14.8 0.00 0.00 0.00 34 1013.3
20260506112038 52 315 6.1 14.8 0.00 0.00 0.00 35 1013.4
20260506111551 52 314 7.0 14.8 0.00 0.00 0.00 34 1013.4
20260506111038 51 311 4.3 14.8 0.00 0.00 0.00 34 1013.4
20260506110539 52 281 7.8 14.8 0.00 0.00 0.00 33 1013.4
20260506110053 52 281 7.8 13.9 0.00 0.00 0.00 37 1013.3
20260506105538 52 277 7.8 13.9 0.00 0.00 0.00 35 1013.3